Time,TemperatureF,DewpointF,PressureIn,WindDirection,WindDirectionDegrees,WindSpeedMPH,WindSpeedGustMPH,Humidity,HourlyPrecipIn,Conditions,Clouds,dailyrainin,SoftwareType,DateUTC
2013-04-20 00:01:00,55.6,54.8,29.75,NNW,330,13.0,14.0,97,0.12,,,0.73,Wunderground v.1.15,2013-04-20 04:01:00,
2013-04-20 00:02:00,55.5,54.7,29.75,NW,323,16.0,16.0,97,0.20,,,0.73,Wunderground v.1.15,2013-04-20 04:02:00,
2013-04-20 00:03:00,55.3,54.5,29.74,North,360,11.0,16.0,97,0.20,,,0.74,Wunderground v.1.15,2013-04-20 04:03:00,
2013-04-20 00:04:00,55.2,54.4,29.74,North,349,7.0,16.0,97,0.20,,,0.74,Wunderground v.1.15,2013-04-20 04:04:00,
2013-04-20 00:10:00,55.0,54.2,29.76,NNW,345,11.0,13.0,97,0.30,,,0.77,Wunderground v.1.15,2013-04-20 04:10:00,
2013-04-20 00:12:00,54.9,54.1,29.75,North,350,3.0,14.0,97,0.39,,,0.78,Wunderground v.1.15,2013-04-20 04:12:00,
2013-04-20 00:18:00,54.9,54.1,29.75,NW,326,16.0,16.0,97,0.17,,,0.01,Wunderground v.1.15,2013-04-20 04:18:00,
2013-04-20 00:23:00,54.9,54.1,29.76,NW,315,19.0,20.0,97,0.16,,,0.02,Wunderground v.1.15,2013-04-20 04:23:00,
2013-04-20 00:29:00,54.9,54.1,29.76,NW,310,15.0,21.0,97,0.20,,,0.04,Wunderground v.1.15,2013-04-20 04:29:00,
2013-04-20 00:34:00,54.7,53.9,29.77,NW,322,16.0,19.0,97,0.32,,,0.08,Wunderground v.1.15,2013-04-20 04:34:00,
2013-04-20 00:39:00,54.5,53.9,29.77,NNW,329,13.0,19.0,98,0.21,,,0.10,Wunderground v.1.15,2013-04-20 04:39:00,
2013-04-20 00:44:00,54.5,53.7,29.77,NW,318,11.0,15.0,97,0.16,,,0.11,Wunderground v.1.15,2013-04-20 04:44:00,
2013-04-20 00:49:00,54.4,53.8,29.78,NNW,331,12.0,15.0,98,0.12,,,0.12,Wunderground v.1.15,2013-04-20 04:49:00,
2013-04-20 00:55:00,54.2,53.4,29.78,NNW,334,14.0,17.0,97,0.09,,,0.13,Wunderground v.1.15,2013-04-20 04:55:00,
2013-04-20 01:00:00,54.3,53.5,29.77,NW,326,13.0,14.0,97,0.09,,,0.13,Wunderground v.1.15,2013-04-20 05:00:00,
2013-04-20 01:06:00,54.3,53.2,29.77,NW,321,20.0,20.0,96,0.05,,,0.13,Wunderground v.1.15,2013-04-20 05:06:00,
2013-04-20 01:11:00,54.4,53.3,29.77,NNW,333,16.0,18.0,96,0.04,,,0.14,Wunderground v.1.15,2013-04-20 05:11:00,
2013-04-20 01:17:00,54.6,53.2,29.78,NW,325,19.0,20.0,95,0.12,,,0.15,Wunderground v.1.15,2013-04-20 05:17:00,
2013-04-20 01:22:00,54.8,53.7,29.78,NW,321,15.0,19.0,96,0.14,,,0.17,Wunderground v.1.15,2013-04-20 05:22:00,
2013-04-20 01:28:00,54.8,53.7,29.79,NW,326,18.0,22.0,96,0.11,,,0.17,Wunderground v.1.15,2013-04-20 05:28:00,
2013-04-20 01:34:00,55.0,53.9,29.80,NW,321,18.0,20.0,96,0.07,,,0.18,Wunderground v.1.15,2013-04-20 05:34:00,
2013-04-20 01:39:00,55.0,53.9,29.80,NW,325,15.0,20.0,96,0.07,,,0.18,Wunderground v.1.15,2013-04-20 05:39:00,
2013-04-20 01:44:00,54.7,53.6,29.79,NNW,330,17.0,19.0,96,0.04,,,0.18,Wunderground v.1.15,2013-04-20 05:44:00,
2013-04-20 01:50:00,54.5,53.1,29.79,NNW,331,20.0,20.0,95,0.00,,,0.18,Wunderground v.1.15,2013-04-20 05:50:00,
2013-04-20 01:56:00,54.5,53.1,29.78,NW,323,14.0,20.0,95,0.00,,,0.19,Wunderground v.1.15,2013-04-20 05:56:00,
2013-04-20 02:01:00,54.6,53.2,29.79,NW,325,17.0,20.0,95,0.00,,,0.19,Wunderground v.1.15,2013-04-20 06:01:00,
2013-04-20 02:06:00,54.8,53.1,29.80,NW,326,20.0,22.0,94,0.00,,,0.19,Wunderground v.1.15,2013-04-20 06:06:00,
2013-04-20 02:11:00,54.7,53.0,29.80,NW,323,24.0,24.0,94,0.00,,,0.19,Wunderground v.1.15,2013-04-20 06:11:00,
2013-04-20 02:16:00,54.5,52.5,29.80,NNW,329,14.0,24.0,93,0.00,,,0.19,Wunderground v.1.15,2013-04-20 06:16:00,
2013-04-20 02:21:00,54.4,52.7,29.80,NNW,348,11.0,18.0,94,0.00,,,0.19,Wunderground v.1.15,2013-04-20 06:21:00,
2013-04-20 02:26:00,54.2,52.5,29.79,NNW,345,13.0,21.0,94,0.00,,,0.19,Wunderground v.1.15,2013-04-20 06:26:00,
2013-04-20 02:31:00,54.0,52.0,29.78,NE,38,12.0,15.0,93,0.00,,,0.19,Wunderground v.1.15,2013-04-20 06:31:00,
2013-04-20 02:36:00,53.6,51.0,29.79,NNW,327,15.0,22.0,91,0.00,,,0.19,Wunderground v.1.15,2013-04-20 06:36:00,
2013-04-20 02:41:00,53.8,51.2,29.80,NNW,333,18.0,22.0,91,0.00,,,0.19,Wunderground v.1.15,2013-04-20 06:41:00,
2013-04-20 02:46:00,54.2,51.6,29.80,NNW,329,14.0,24.0,91,0.00,,,0.19,Wunderground v.1.15,2013-04-20 06:46:00,
2013-04-20 02:51:00,54.2,51.3,29.81,NW,324,12.0,21.0,90,0.00,,,0.19,Wunderground v.1.15,2013-04-20 06:51:00,
2013-04-20 02:56:00,54.2,51.0,29.81,North,355,2.0,22.0,89,0.00,,,0.19,Wunderground v.1.15,2013-04-20 06:56:00,
2013-04-20 03:01:00,53.9,50.7,29.81,NW,324,7.0,12.0,89,0.00,,,0.19,Wunderground v.1.15,2013-04-20 07:01:00,
2013-04-20 03:06:00,53.6,50.4,29.82,NE,47,1.0,15.0,89,0.00,,,0.19,Wunderground v.1.15,2013-04-20 07:06:00,
2013-04-20 03:11:00,53.5,50.6,29.82,NE,43,3.0,10.0,90,0.00,,,0.19,Wunderground v.1.15,2013-04-20 07:11:00,
2013-04-20 03:16:00,53.3,50.1,29.82,NW,322,7.0,10.0,89,0.00,,,0.19,Wunderground v.1.15,2013-04-20 07:16:00,
2013-04-20 03:21:00,53.2,50.0,29.83,NNE,30,3.0,4.0,89,0.00,,,0.19,Wunderground v.1.15,2013-04-20 07:21:00,
2013-04-20 03:26:00,53.3,50.1,29.83,NNE,16,6.0,9.0,89,0.00,,,0.19,Wunderground v.1.15,2013-04-20 07:26:00,
2013-04-20 03:31:00,53.5,50.0,29.83,NNW,330,7.0,13.0,88,0.00,,,0.19,Wunderground v.1.15,2013-04-20 07:31:00,
2013-04-20 03:36:00,53.9,49.8,29.84,NW,323,20.0,22.0,86,0.00,,,0.20,Wunderground v.1.15,2013-04-20 07:36:00,
2013-04-20 03:41:00,54.4,49.0,29.84,NW,319,20.0,24.0,82,0.00,,,0.20,Wunderground v.1.15,2013-04-20 07:41:00,
2013-04-20 03:46:00,54.8,48.7,29.84,NW,325,20.0,26.0,80,0.00,,,0.20,Wunderground v.1.15,2013-04-20 07:46:00,
2013-04-20 03:51:00,55.0,48.6,29.85,NNW,338,11.0,21.0,79,0.00,,,0.20,Wunderground v.1.15,2013-04-20 07:51:00,
2013-04-20 03:56:00,55.0,48.6,29.85,NW,323,16.0,21.0,79,0.00,,,0.20,Wunderground v.1.15,2013-04-20 07:56:00,
2013-04-20 04:01:00,55.1,48.4,29.85,NNW,340,16.0,17.0,78,0.00,,,0.20,Wunderground v.1.15,2013-04-20 08:01:00,
2013-04-20 04:06:00,54.9,47.8,29.85,NNW,344,15.0,21.0,77,0.00,,,0.20,Wunderground v.1.15,2013-04-20 08:06:00,
2013-04-20 04:11:00,55.0,48.9,29.84,North,355,12.0,16.0,80,0.00,,,0.20,Wunderground v.1.15,2013-04-20 08:11:00,
2013-04-20 04:16:00,54.9,48.2,29.85,NW,304,13.0,20.0,78,0.00,,,0.20,Wunderground v.1.15,2013-04-20 08:16:00,
2013-04-20 04:21:00,55.1,49.4,29.85,NNW,334,17.0,18.0,81,0.00,,,0.20,Wunderground v.1.15,2013-04-20 08:21:00,
2013-04-20 04:26:00,55.2,49.1,29.86,NNW,332,17.0,23.0,80,0.00,,,0.20,Wunderground v.1.15,2013-04-20 08:26:00,
2013-04-20 04:31:00,55.3,49.2,29.87,NNW,330,24.0,25.0,80,0.00,,,0.20,Wunderground v.1.15,2013-04-20 08:31:00,
2013-04-20 04:36:00,55.4,49.3,29.87,NW,320,19.0,25.0,80,0.00,,,0.20,Wunderground v.1.15,2013-04-20 08:36:00,
2013-04-20 04:41:00,55.3,49.2,29.86,NW,322,18.0,20.0,80,0.00,,,0.20,Wunderground v.1.15,2013-04-20 08:41:00,
2013-04-20 04:46:00,55.0,49.3,29.87,NW,326,21.0,21.0,81,0.00,,,0.20,Wunderground v.1.15,2013-04-20 08:46:00,
2013-04-20 04:51:00,54.9,49.5,29.87,NW,311,17.0,24.0,82,0.00,,,0.20,Wunderground v.1.15,2013-04-20 08:51:00,
2013-04-20 04:56:00,54.8,48.4,29.87,NW,313,19.0,28.0,79,0.00,,,0.20,Wunderground v.1.15,2013-04-20 08:56:00,
2013-04-20 05:01:00,54.9,47.1,29.88,NW,319,22.0,31.0,75,0.00,,,0.20,Wunderground v.1.15,2013-04-20 09:01:00,
2013-04-20 05:07:00,55.0,47.2,29.88,NW,321,24.0,32.0,75,0.00,,,0.20,Wunderground v.1.15,2013-04-20 09:07:00,
2013-04-20 05:12:00,55.0,46.1,29.88,NW,322,24.0,33.0,72,0.00,,,0.20,Wunderground v.1.15,2013-04-20 09:12:00,
2013-04-20 05:17:00,55.0,47.2,29.89,NW,324,26.0,33.0,75,0.00,,,0.20,Wunderground v.1.15,2013-04-20 09:17:00,
2013-04-20 05:22:00,54.9,46.4,29.89,NW,319,18.0,27.0,73,0.00,,,0.20,Wunderground v.1.15,2013-04-20 09:22:00,
2013-04-20 05:27:00,54.9,46.8,29.90,NW,317,21.0,27.0,74,0.00,,,0.20,Wunderground v.1.15,2013-04-20 09:27:00,
2013-04-20 05:32:00,54.8,46.7,29.90,NW,316,21.0,27.0,74,0.00,,,0.20,Wunderground v.1.15,2013-04-20 09:32:00,
2013-04-20 05:37:00,54.7,46.2,29.91,NNW,327,20.0,30.0,73,0.00,,,0.20,Wunderground v.1.15,2013-04-20 09:37:00,
2013-04-20 05:42:00,54.6,46.5,29.91,NNW,329,26.0,27.0,74,0.00,,,0.20,Wunderground v.1.15,2013-04-20 09:42:00,
2013-04-20 05:47:00,54.6,45.8,29.91,NW,325,22.0,27.0,72,0.00,,,0.20,Wunderground v.1.15,2013-04-20 09:47:00,
2013-04-20 05:52:00,54.6,46.1,29.91,NW,323,22.0,26.0,73,0.00,,,0.20,Wunderground v.1.15,2013-04-20 09:52:00,
2013-04-20 05:57:00,54.6,45.4,29.91,NNW,327,22.0,28.0,71,0.00,,,0.20,Wunderground v.1.15,2013-04-20 09:57:00,
2013-04-20 06:02:00,54.6,45.4,29.92,NW,325,24.0,27.0,71,0.00,,,0.20,Wunderground v.1.15,2013-04-20 10:02:00,
2013-04-20 06:07:00,54.5,45.3,29.92,NW,313,22.0,27.0,71,0.00,,,0.20,Wunderground v.1.15,2013-04-20 10:07:00,
2013-04-20 06:12:00,54.4,44.4,29.92,NW,312,23.0,28.0,69,0.00,,,0.20,Wunderground v.1.15,2013-04-20 10:12:00,
2013-04-20 06:17:00,54.4,45.2,29.92,NW,317,22.0,28.0,71,0.00,,,0.20,Wunderground v.1.15,2013-04-20 10:17:00,
2013-04-20 06:22:00,54.4,45.6,29.93,NW,315,22.0,24.0,72,0.00,,,0.20,Wunderground v.1.15,2013-04-20 10:22:00,
2013-04-20 06:27:00,54.3,44.3,29.93,NW,318,22.0,29.0,69,0.00,,,0.20,Wunderground v.1.15,2013-04-20 10:27:00,
2013-04-20 06:32:00,54.3,45.1,29.93,NW,320,17.0,24.0,71,0.00,,,0.20,Wunderground v.1.15,2013-04-20 10:32:00,
2013-04-20 06:37:00,54.2,43.5,29.93,NW,316,22.0,28.0,67,0.00,,,0.20,Wunderground v.1.15,2013-04-20 10:37:00,
2013-04-20 06:42:00,54.1,43.8,29.94,NW,322,25.0,26.0,68,0.00,,,0.20,Wunderground v.1.15,2013-04-20 10:42:00,
2013-04-20 06:47:00,54.1,43.4,29.93,NW,318,20.0,26.0,67,0.00,,,0.20,Wunderground v.1.15,2013-04-20 10:47:00,
2013-04-20 06:52:00,54.1,44.2,29.94,NW,324,24.0,26.0,69,0.00,,,0.20,Wunderground v.1.15,2013-04-20 10:52:00,
2013-04-20 06:57:00,53.9,42.8,29.94,NW,314,23.0,26.0,66,0.00,,,0.20,Wunderground v.1.15,2013-04-20 10:57:00,
2013-04-20 07:06:00,53.9,43.2,29.95,NW,314,19.0,23.0,67,0.00,,,0.20,Wunderground v.1.15,2013-04-20 11:06:00,
2013-04-20 07:11:00,53.8,43.5,29.95,NW,313,20.0,22.0,68,0.00,,,0.20,Wunderground v.1.15,2013-04-20 11:11:00,
2013-04-20 07:16:00,53.8,43.9,29.96,NW,311,23.0,24.0,69,0.00,,,0.20,Wunderground v.1.15,2013-04-20 11:16:00,
2013-04-20 07:21:00,53.7,43.0,29.96,NW,316,22.0,23.0,67,0.00,,,0.20,Wunderground v.1.15,2013-04-20 11:21:00,
2013-04-20 07:26:00,53.7,43.0,29.97,NW,318,19.0,25.0,67,0.00,,,0.20,Wunderground v.1.15,2013-04-20 11:26:00,
2013-04-20 07:33:00,53.6,43.7,29.97,NW,325,21.0,21.0,69,0.00,,,0.20,Wunderground v.1.15,2013-04-20 11:33:00,
2013-04-20 07:45:00,53.4,43.1,29.97,NW,314,19.0,26.0,68,0.00,,,0.20,Wunderground v.1.15,2013-04-20 11:45:00,
2013-04-20 07:50:00,53.4,42.7,29.97,NW,310,20.0,22.0,67,0.00,,,0.20,Wunderground v.1.15,2013-04-20 11:50:00,
2013-04-20 07:56:00,53.4,42.3,29.98,NW,315,21.0,26.0,66,0.00,,,0.20,Wunderground v.1.15,2013-04-20 11:56:00,
2013-04-20 08:01:00,53.2,42.1,29.98,NW,309,22.0,26.0,66,0.00,,,0.20,Wunderground v.1.15,2013-04-20 12:01:00,
2013-04-20 08:06:00,53.0,41.5,29.98,NW,311,22.0,31.0,65,0.00,,,0.20,Wunderground v.1.15,2013-04-20 12:06:00,
2013-04-20 08:11:00,53.1,42.8,29.99,WNW,300,27.0,32.0,68,0.00,,,0.20,Wunderground v.1.15,2013-04-20 12:11:00,
2013-04-20 08:16:00,52.9,41.0,29.99,NW,313,28.0,33.0,64,0.00,,,0.20,Wunderground v.1.15,2013-04-20 12:16:00,
2013-04-20 08:21:00,52.6,41.2,29.99,WNW,303,28.0,29.0,65,0.00,,,0.20,Wunderground v.1.15,2013-04-20 12:21:00,
2013-04-20 08:26:00,52.4,41.0,30.00,NW,306,27.0,32.0,65,0.00,,,0.20,Wunderground v.1.15,2013-04-20 12:26:00,
2013-04-20 08:33:00,52.1,41.1,30.00,NW,307,22.0,29.0,66,0.00,,,0.20,Wunderground v.1.15,2013-04-20 12:33:00,
2013-04-20 08:45:00,51.7,40.3,30.01,NW,308,24.0,26.0,65,0.00,,,0.20,Wunderground v.1.15,2013-04-20 12:45:00,
2013-04-20 08:56:00,51.5,39.7,30.01,NW,310,23.0,28.0,64,0.00,,,0.20,Wunderground v.1.15,2013-04-20 12:56:00,
2013-04-20 09:06:00,51.4,41.2,30.02,NW,314,21.0,26.0,68,0.00,,,0.20,Wunderground v.1.15,2013-04-20 13:06:00,
2013-04-20 09:11:00,51.3,40.3,30.02,NW,307,21.0,25.0,66,0.00,,,0.20,Wunderground v.1.15,2013-04-20 13:11:00,
2013-04-20 09:16:00,51.2,39.8,30.02,NW,311,24.0,27.0,65,0.00,,,0.20,Wunderground v.1.15,2013-04-20 13:16:00,
2013-04-20 09:26:00,51.1,39.7,30.03,NW,306,20.0,24.0,65,0.00,,,0.20,Wunderground v.1.15,2013-04-20 13:26:00,
2013-04-20 09:33:00,51.0,40.4,30.03,WNW,300,21.0,22.0,67,0.00,,,0.20,Wunderground v.1.15,2013-04-20 13:33:00,
2013-04-20 09:38:00,51.0,40.0,30.03,WNW,298,22.0,26.0,66,0.00,,,0.20,Wunderground v.1.15,2013-04-20 13:38:00,
2013-04-20 09:45:00,50.9,39.9,30.04,NW,306,18.0,24.0,66,0.00,,,0.20,Wunderground v.1.15,2013-04-20 13:45:00,
2013-04-20 09:56:00,50.9,39.5,30.05,NW,306,19.0,24.0,65,0.00,,,0.20,Wunderground v.1.15,2013-04-20 13:56:00,
2013-04-20 10:06:00,50.8,40.6,30.06,NW,304,21.0,23.0,68,0.00,,,0.20,Wunderground v.1.15,2013-04-20 14:06:00,
2013-04-20 10:11:00,50.8,39.1,30.06,NW,311,20.0,26.0,64,0.00,,,0.20,Wunderground v.1.15,2013-04-20 14:11:00,
2013-04-20 10:16:00,50.5,39.6,30.07,NW,311,21.0,26.0,66,0.00,,,0.20,Wunderground v.1.15,2013-04-20 14:16:00,
2013-04-20 10:21:00,50.5,38.4,30.07,NW,313,22.0,24.0,63,0.00,,,0.20,Wunderground v.1.15,2013-04-20 14:21:00,
2013-04-20 10:26:00,50.4,38.7,30.07,NW,321,21.0,24.0,64,0.00,,,0.20,Wunderground v.1.15,2013-04-20 14:26:00,
2013-04-20 10:33:00,50.4,39.1,30.07,NNW,329,23.0,23.0,65,0.00,,,0.20,Wunderground v.1.15,2013-04-20 14:33:00,
2013-04-20 10:38:00,50.5,40.3,30.07,NW,306,16.0,23.0,68,0.00,,,0.20,Wunderground v.1.15,2013-04-20 14:38:00,
2013-04-20 10:45:00,50.5,39.2,30.07,NW,310,15.0,21.0,65,0.00,,,0.20,Wunderground v.1.15,2013-04-20 14:45:00,
2013-04-20 10:57:00,50.5,39.6,30.08,NW,315,15.0,19.0,66,0.00,,,0.20,Wunderground v.1.15,2013-04-20 14:57:00,
2013-04-20 11:06:00,50.7,39.7,30.08,NNW,327,18.0,20.0,66,0.00,,,0.20,Wunderground v.1.15,2013-04-20 15:06:00,
2013-04-20 11:11:00,51.0,40.0,30.08,NW,322,19.0,20.0,66,0.00,,,0.20,Wunderground v.1.15,2013-04-20 15:11:00,
2013-04-20 11:16:00,51.2,40.2,30.08,WNW,296,15.0,21.0,66,0.00,,,0.20,Wunderground v.1.15,2013-04-20 15:16:00,
2013-04-20 11:21:00,51.5,41.3,30.08,WNW,303,19.0,21.0,68,0.00,,,0.20,Wunderground v.1.15,2013-04-20 15:21:00,
2013-04-20 11:27:00,51.9,40.5,30.08,NW,315,22.0,23.0,65,0.00,,,0.20,Wunderground v.1.15,2013-04-20 15:27:00,
2013-04-20 11:33:00,52.2,41.2,30.08,NW,326,20.0,21.0,66,0.00,,,0.20,Wunderground v.1.15,2013-04-20 15:33:00,
2013-04-20 11:45:00,52.4,40.2,30.08,WNW,303,20.0,20.0,63,0.00,,,0.20,Wunderground v.1.15,2013-04-20 15:45:00,
2013-04-20 11:50:00,52.7,42.8,30.07,WNW,294,18.0,21.0,69,0.00,,,0.20,Wunderground v.1.15,2013-04-20 15:50:00,
2013-04-20 11:55:00,52.8,41.4,30.08,NW,317,17.0,23.0,65,0.00,,,0.20,Wunderground v.1.15,2013-04-20 15:55:00,
2013-04-20 12:08:00,53.1,41.2,30.07,NW,321,19.0,22.0,64,0.00,,,0.20,Wunderground v.1.15,2013-04-20 16:08:00,
2013-04-20 12:13:00,53.2,41.7,30.07,NW,322,16.0,20.0,65,0.00,,,0.20,Wunderground v.1.15,2013-04-20 16:13:00,
2013-04-20 12:18:00,53.3,41.0,30.07,NW,323,16.0,20.0,63,0.00,,,0.20,Wunderground v.1.15,2013-04-20 16:18:00,
2013-04-20 12:27:00,53.4,41.5,30.07,NW,309,19.0,19.0,64,0.00,,,0.20,Wunderground v.1.15,2013-04-20 16:27:00,
2013-04-20 12:33:00,53.5,41.2,30.07,NW,312,14.0,15.0,63,0.00,,,0.20,Wunderground v.1.15,2013-04-20 16:33:00,
2013-04-20 12:38:00,53.7,40.1,30.07,NW,313,12.0,18.0,60,0.00,,,0.20,Wunderground v.1.15,2013-04-20 16:38:00,
2013-04-20 12:45:00,53.9,42.8,30.06,NW,306,13.0,19.0,66,0.00,,,0.20,Wunderground v.1.15,2013-04-20 16:45:00,
2013-04-20 12:50:00,54.0,42.1,30.06,NW,306,17.0,19.0,64,0.00,,,0.20,Wunderground v.1.15,2013-04-20 16:50:00,
2013-04-20 12:57:00,54.1,40.5,30.06,NW,319,14.0,21.0,60,0.00,,,0.20,Wunderground v.1.15,2013-04-20 16:57:00,
2013-04-20 13:02:00,54.2,42.3,30.06,WNW,299,16.0,19.0,64,0.00,,,0.20,Wunderground v.1.15,2013-04-20 17:02:00,
2013-04-20 13:07:00,54.3,39.8,30.06,NW,319,11.0,19.0,58,0.00,,,0.20,Wunderground v.1.15,2013-04-20 17:07:00,
2013-04-20 13:12:00,54.2,39.3,30.05,WNW,294,11.0,14.0,57,0.00,,,0.20,Wunderground v.1.15,2013-04-20 17:12:00,
2013-04-20 13:17:00,54.3,40.3,30.05,WNW,300,11.0,14.0,59,0.00,,,0.20,Wunderground v.1.15,2013-04-20 17:17:00,
2013-04-20 13:23:00,54.6,41.4,30.06,NW,319,16.0,19.0,61,0.00,,,0.20,Wunderground v.1.15,2013-04-20 17:23:00,
2013-04-20 13:28:00,54.8,41.6,30.06,WNW,303,13.0,20.0,61,0.00,,,0.20,Wunderground v.1.15,2013-04-20 17:28:00,
2013-04-20 13:33:00,55.0,40.9,30.05,WNW,298,14.0,15.0,59,0.00,,,0.20,Wunderground v.1.15,2013-04-20 17:33:00,
2013-04-20 13:38:00,55.0,40.5,30.05,WNW,295,10.0,15.0,58,0.00,,,0.20,Wunderground v.1.15,2013-04-20 17:38:00,
2013-04-20 13:43:00,55.1,41.9,30.05,WNW,303,11.0,12.0,61,0.00,,,0.20,Wunderground v.1.15,2013-04-20 17:43:00,
2013-04-20 13:48:00,55.3,40.8,30.06,NW,309,10.0,17.0,58,0.00,,,0.20,Wunderground v.1.15,2013-04-20 17:48:00,
2013-04-20 13:53:00,55.5,41.0,30.06,NW,309,13.0,17.0,58,0.00,,,0.20,Wunderground v.1.15,2013-04-20 17:53:00,
2013-04-20 13:58:00,55.6,41.5,30.06,NW,313,10.0,17.0,59,0.00,,,0.20,Wunderground v.1.15,2013-04-20 17:58:00,
2013-04-20 14:03:00,55.8,39.9,30.06,NW,310,10.0,14.0,55,0.00,,,0.20,Wunderground v.1.15,2013-04-20 18:03:00,
2013-04-20 14:09:00,55.9,41.3,30.06,NW,317,12.0,14.0,58,0.00,,,0.20,Wunderground v.1.15,2013-04-20 18:09:00,
2013-04-20 14:14:00,56.1,42.4,30.06,NNW,327,15.0,16.0,60,0.00,,,0.20,Wunderground v.1.15,2013-04-20 18:14:00,
2013-04-20 14:19:00,56.2,41.2,30.06,WNW,297,17.0,17.0,57,0.00,,,0.20,Wunderground v.1.15,2013-04-20 18:19:00,
2013-04-20 14:24:00,56.4,42.2,30.06,NW,310,15.0,17.0,59,0.00,,,0.20,Wunderground v.1.15,2013-04-20 18:24:00,
2013-04-20 14:29:00,56.6,42.4,30.06,NW,308,13.0,17.0,59,0.00,,,0.20,Wunderground v.1.15,2013-04-20 18:29:00,
2013-04-20 14:34:00,56.7,41.2,30.06,WNW,303,14.0,15.0,56,0.00,,,0.20,Wunderground v.1.15,2013-04-20 18:34:00,
2013-04-20 14:39:00,56.8,41.7,30.05,NW,314,14.0,17.0,57,0.00,,,0.20,Wunderground v.1.15,2013-04-20 18:39:00,
2013-04-20 14:44:00,56.9,41.4,30.06,NW,323,13.0,17.0,56,0.00,,,0.20,Wunderground v.1.15,2013-04-20 18:44:00,
2013-04-20 14:49:00,57.0,42.4,30.06,WNW,301,18.0,18.0,58,0.00,,,0.20,Wunderground v.1.15,2013-04-20 18:49:00,
2013-04-20 14:54:00,57.1,42.0,30.06,NW,322,13.0,20.0,57,0.00,,,0.20,Wunderground v.1.15,2013-04-20 18:54:00,
2013-04-20 14:59:00,57.3,41.7,30.06,WNW,302,15.0,20.0,56,0.00,,,0.20,Wunderground v.1.15,2013-04-20 18:59:00,
2013-04-20 15:04:00,57.4,41.8,30.07,NW,309,12.0,16.0,56,0.00,,,0.20,Wunderground v.1.15,2013-04-20 19:04:00,
2013-04-20 15:09:00,57.5,40.0,30.06,WNW,284,12.0,19.0,52,0.00,,,0.20,Wunderground v.1.15,2013-04-20 19:09:00,
2013-04-20 15:14:00,57.6,42.0,30.06,NW,305,17.0,18.0,56,0.00,,,0.20,Wunderground v.1.15,2013-04-20 19:14:00,
2013-04-20 15:19:00,57.6,41.1,30.06,NW,324,13.0,18.0,54,0.00,,,0.20,Wunderground v.1.15,2013-04-20 19:19:00,
2013-04-20 15:24:00,57.7,43.5,30.07,NW,317,13.0,15.0,59,0.00,,,0.20,Wunderground v.1.15,2013-04-20 19:24:00,
2013-04-20 15:29:00,57.7,41.6,30.06,NW,321,11.0,15.0,55,0.00,,,0.20,Wunderground v.1.15,2013-04-20 19:29:00,
2013-04-20 15:34:00,57.7,42.1,30.06,NW,326,14.0,14.0,56,0.00,,,0.20,Wunderground v.1.15,2013-04-20 19:34:00,
2013-04-20 15:39:00,57.7,40.7,30.06,NNW,327,11.0,14.0,53,0.00,,,0.20,Wunderground v.1.15,2013-04-20 19:39:00,
2013-04-20 15:44:00,57.8,41.7,30.06,NW,316,12.0,14.0,55,0.00,,,0.20,Wunderground v.1.15,2013-04-20 19:44:00,
2013-04-20 15:49:00,57.9,41.3,30.07,NNW,329,11.0,14.0,54,0.00,,,0.20,Wunderground v.1.15,2013-04-20 19:49:00,
2013-04-20 15:54:00,58.0,41.4,30.07,NNW,327,14.0,14.0,54,0.00,,,0.20,Wunderground v.1.15,2013-04-20 19:54:00,
2013-04-20 15:59:00,58.1,41.0,30.07,NNW,336,10.0,15.0,53,0.00,,,0.20,Wunderground v.1.15,2013-04-20 19:59:00,
2013-04-20 16:04:00,58.2,43.0,30.07,NW,313,13.0,16.0,57,0.00,,,0.20,Wunderground v.1.15,2013-04-20 20:04:00,
2013-04-20 16:09:00,58.3,44.0,30.07,NNW,327,11.0,16.0,59,0.00,,,0.20,Wunderground v.1.15,2013-04-20 20:09:00,
2013-04-20 16:14:00,58.4,44.1,30.07,NNW,330,11.0,14.0,59,0.00,,,0.20,Wunderground v.1.15,2013-04-20 20:14:00,
2013-04-20 16:19:00,58.5,42.4,30.07,NNW,336,9.0,14.0,55,0.00,,,0.20,Wunderground v.1.15,2013-04-20 20:19:00,
2013-04-20 16:24:00,58.6,42.9,30.07,NW,317,8.0,11.0,56,0.00,,,0.20,Wunderground v.1.15,2013-04-20 20:24:00,
2013-04-20 16:29:00,58.8,44.0,30.07,NNW,331,15.0,15.0,58,0.00,,,0.20,Wunderground v.1.15,2013-04-20 20:29:00,
2013-04-20 16:34:00,58.9,41.8,30.07,NW,315,12.0,18.0,53,0.00,,,0.20,Wunderground v.1.15,2013-04-20 20:34:00,
2013-04-20 16:40:00,59.0,44.2,30.08,NW,315,13.0,13.0,58,0.00,,,0.20,Wunderground v.1.15,2013-04-20 20:40:00,
2013-04-20 16:45:00,59.0,42.8,30.08,NNW,331,15.0,18.0,55,0.00,,,0.20,Wunderground v.1.15,2013-04-20 20:45:00,
2013-04-20 16:50:00,59.0,42.8,30.08,NW,323,11.0,14.0,55,0.00,,,0.20,Wunderground v.1.15,2013-04-20 20:50:00,
2013-04-20 16:55:00,59.0,40.4,30.08,NW,318,11.0,14.0,50,0.00,,,0.20,Wunderground v.1.15,2013-04-20 20:55:00,
2013-04-20 17:00:00,59.0,44.2,30.08,WNW,302,13.0,13.0,58,0.00,,,0.20,Wunderground v.1.15,2013-04-20 21:00:00,
2013-04-20 17:05:00,59.0,45.6,30.08,NW,311,17.0,19.0,61,0.00,,,0.20,Wunderground v.1.15,2013-04-20 21:05:00,
2013-04-20 17:10:00,59.2,44.4,30.08,NW,311,12.0,16.0,58,0.00,,,0.20,Wunderground v.1.15,2013-04-20 21:10:00,
2013-04-20 17:15:00,59.3,45.4,30.09,NW,313,14.0,16.0,60,0.00,,,0.20,Wunderground v.1.15,2013-04-20 21:15:00,
2013-04-20 17:20:00,59.2,42.6,30.09,NNW,327,11.0,14.0,54,0.00,,,0.20,Wunderground v.1.15,2013-04-20 21:20:00,
2013-04-20 17:25:00,59.2,44.4,30.09,NW,322,12.0,15.0,58,0.00,,,0.20,Wunderground v.1.15,2013-04-20 21:25:00,
2013-04-20 17:30:00,59.1,42.9,30.09,WNW,298,14.0,15.0,55,0.00,,,0.20,Wunderground v.1.15,2013-04-20 21:30:00,
2013-04-20 17:35:00,59.3,43.1,30.09,NW,306,14.0,16.0,55,0.00,,,0.20,Wunderground v.1.15,2013-04-20 21:35:00,
2013-04-20 17:40:00,59.3,43.1,30.09,NW,309,17.0,17.0,55,0.00,,,0.20,Wunderground v.1.15,2013-04-20 21:40:00,
2013-04-20 17:45:00,59.3,45.4,30.10,NW,320,15.0,19.0,60,0.00,,,0.20,Wunderground v.1.15,2013-04-20 21:45:00,
2013-04-20 17:50:00,59.4,42.7,30.10,NNW,328,16.0,16.0,54,0.00,,,0.20,Wunderground v.1.15,2013-04-20 21:50:00,
2013-04-20 17:55:00,59.4,42.7,30.11,NW,317,17.0,21.0,54,0.00,,,0.20,Wunderground v.1.15,2013-04-20 21:55:00,
2013-04-20 18:00:00,59.4,41.8,30.11,NW,323,18.0,19.0,52,0.00,,,0.20,Wunderground v.1.15,2013-04-20 22:00:00,
2013-04-20 18:05:00,59.4,45.1,30.11,NW,317,20.0,20.0,59,0.00,,,0.20,Wunderground v.1.15,2013-04-20 22:05:00,
2013-04-20 18:10:00,59.4,42.3,30.11,NW,321,15.0,16.0,53,0.00,,,0.20,Wunderground v.1.15,2013-04-20 22:10:00,
2013-04-20 18:15:00,59.4,42.7,30.11,NW,310,14.0,17.0,54,0.00,,,0.20,Wunderground v.1.15,2013-04-20 22:15:00,
2013-04-20 18:20:00,59.5,41.9,30.12,NW,326,13.0,14.0,52,0.00,,,0.20,Wunderground v.1.15,2013-04-20 22:20:00,
2013-04-20 18:25:00,59.4,44.2,30.12,NW,313,14.0,19.0,57,0.00,,,0.20,Wunderground v.1.15,2013-04-20 22:25:00,
2013-04-20 18:30:00,59.5,43.3,30.12,NW,319,19.0,19.0,55,0.00,,,0.20,Wunderground v.1.15,2013-04-20 22:30:00,
2013-04-20 18:35:00,59.5,42.8,30.12,NW,326,13.0,19.0,54,0.00,,,0.20,Wunderground v.1.15,2013-04-20 22:35:00,
2013-04-20 18:40:00,59.5,43.3,30.12,NW,326,16.0,18.0,55,0.00,,,0.20,Wunderground v.1.15,2013-04-20 22:40:00,
2013-04-20 18:45:00,59.4,43.2,30.13,NW,318,12.0,18.0,55,0.00,,,0.20,Wunderground v.1.15,2013-04-20 22:45:00,
2013-04-20 18:50:00,59.5,44.2,30.13,NW,322,12.0,15.0,57,0.00,,,0.20,Wunderground v.1.15,2013-04-20 22:50:00,
2013-04-20 18:55:00,59.4,43.7,30.13,NNW,340,13.0,18.0,56,0.00,,,0.20,Wunderground v.1.15,2013-04-20 22:55:00,
2013-04-20 19:00:00,59.4,44.2,30.13,NW,322,16.0,17.0,57,0.00,,,0.20,Wunderground v.1.15,2013-04-20 23:00:00,
2013-04-20 19:05:00,59.4,43.2,30.13,NW,318,14.0,20.0,55,0.00,,,0.20,Wunderground v.1.15,2013-04-20 23:05:00,
2013-04-20 19:10:00,59.4,44.6,30.13,NNW,336,19.0,20.0,58,0.00,,,0.20,Wunderground v.1.15,2013-04-20 23:10:00,
2013-04-20 19:15:00,59.4,43.7,30.13,NW,325,17.0,21.0,56,0.00,,,0.20,Wunderground v.1.15,2013-04-20 23:15:00,
2013-04-20 19:20:00,59.4,43.2,30.14,NW,325,18.0,18.0,55,0.00,,,0.20,Wunderground v.1.15,2013-04-20 23:20:00,
2013-04-20 19:25:00,59.3,44.5,30.14,NW,323,16.0,19.0,58,0.00,,,0.20,Wunderground v.1.15,2013-04-20 23:25:00,
2013-04-20 19:30:00,59.3,44.5,30.15,NW,324,15.0,17.0,58,0.00,,,0.20,Wunderground v.1.15,2013-04-20 23:30:00,
2013-04-20 19:35:00,59.1,42.5,30.15,NW,321,12.0,20.0,54,0.00,,,0.20,Wunderground v.1.15,2013-04-20 23:35:00,
2013-04-20 19:40:00,59.0,43.3,30.15,NW,325,13.0,14.0,56,0.00,,,0.20,Wunderground v.1.15,2013-04-20 23:40:00,
2013-04-20 19:45:00,59.0,42.8,30.16,NNW,341,15.0,19.0,55,0.00,,,0.20,Wunderground v.1.15,2013-04-20 23:45:00,
2013-04-20 19:50:00,59.0,42.8,30.16,NNW,337,14.0,17.0,55,0.00,,,0.20,Wunderground v.1.15,2013-04-20 23:50:00,
2013-04-20 19:55:00,59.0,42.8,30.17,NW,320,15.0,18.0,55,0.00,,,0.20,Wunderground v.1.15,2013-04-20 23:55:00,
2013-04-20 20:00:00,59.0,43.8,30.17,NNW,344,14.0,16.0,57,0.00,,,0.20,Wunderground v.1.15,2013-04-21 00:00:00,
2013-04-20 20:05:00,58.8,42.2,30.17,North,355,4.0,16.0,54,0.00,,,0.20,Wunderground v.1.15,2013-04-21 00:05:00,
2013-04-20 20:10:00,58.3,42.2,30.17,North,355,1.0,6.0,55,0.00,,,0.20,Wunderground v.1.15,2013-04-21 00:10:00,
2013-04-20 20:15:00,58.0,41.9,30.18,North,350,6.0,10.0,55,0.00,,,0.20,Wunderground v.1.15,2013-04-21 00:15:00,
2013-04-20 20:20:00,57.7,41.2,30.18,NNW,346,3.0,4.0,54,0.00,,,0.20,Wunderground v.1.15,2013-04-21 00:20:00,
2013-04-20 20:25:00,57.4,39.9,30.19,NNE,25,1.0,9.0,52,0.00,,,0.20,Wunderground v.1.15,2013-04-21 00:25:00,
2013-04-20 20:30:00,57.2,39.7,30.19,North,360,4.0,9.0,52,0.00,,,0.20,Wunderground v.1.15,2013-04-21 00:30:00,
2013-04-20 20:35:00,57.2,39.7,30.19,NNE,22,4.0,9.0,52,0.00,,,0.20,Wunderground v.1.15,2013-04-21 00:35:00,
2013-04-20 20:40:00,57.2,39.2,30.20,NNE,13,2.0,7.0,51,0.00,,,0.20,Wunderground v.1.15,2013-04-21 00:40:00,
2013-04-20 20:45:00,57.1,38.6,30.20,North,355,4.0,9.0,50,0.00,,,0.20,Wunderground v.1.15,2013-04-21 00:45:00,
2013-04-20 20:50:00,57.0,39.0,30.21,NNE,33,6.0,9.0,51,0.00,,,0.20,Wunderground v.1.15,2013-04-21 00:50:00,
2013-04-20 20:55:00,57.0,39.0,30.21,NNW,341,5.0,9.0,51,0.00,,,0.20,Wunderground v.1.15,2013-04-21 00:55:00,
2013-04-20 21:00:00,57.0,39.0,30.21,North,5,1.0,12.0,51,0.00,,,0.20,Wunderground v.1.15,2013-04-21 01:00:00,
2013-04-20 21:05:00,57.0,40.5,30.21,North,349,5.0,12.0,54,0.00,,,0.20,Wunderground v.1.15,2013-04-21 01:05:00,
2013-04-20 21:10:00,56.9,39.9,30.22,NNE,13,1.0,5.0,53,0.00,,,0.20,Wunderground v.1.15,2013-04-21 01:10:00,
2013-04-20 21:15:00,56.9,40.9,30.22,North,5,2.0,7.0,55,0.00,,,0.20,Wunderground v.1.15,2013-04-21 01:15:00,
2013-04-20 21:20:00,56.7,39.7,30.22,NE,36,3.0,10.0,53,0.00,,,0.20,Wunderground v.1.15,2013-04-21 01:20:00,
2013-04-20 21:25:00,56.5,40.5,30.22,NW,326,7.0,10.0,55,0.00,,,0.20,Wunderground v.1.15,2013-04-21 01:25:00,
2013-04-20 21:31:00,56.3,40.3,30.23,NE,43,3.0,6.0,55,0.00,,,0.20,Wunderground v.1.15,2013-04-21 01:31:00,
2013-04-20 21:36:00,56.1,39.2,30.23,ENE,57,3.0,11.0,53,0.00,,,0.20,Wunderground v.1.15,2013-04-21 01:36:00,
2013-04-20 21:41:00,56.0,40.1,30.24,NNW,338,4.0,11.0,55,0.00,,,0.20,Wunderground v.1.15,2013-04-21 01:41:00,
2013-04-20 21:46:00,55.9,39.0,30.24,NE,36,6.0,11.0,53,0.00,,,0.20,Wunderground v.1.15,2013-04-21 01:46:00,
2013-04-20 21:51:00,55.9,39.5,30.25,North,5,3.0,11.0,54,0.00,,,0.20,Wunderground v.1.15,2013-04-21 01:51:00,
2013-04-20 21:56:00,55.8,40.3,30.25,NNE,19,7.0,11.0,56,0.00,,,0.20,Wunderground v.1.15,2013-04-21 01:56:00,
2013-04-20 22:01:00,55.7,39.8,30.26,North,10,9.0,11.0,55,0.00,,,0.20,Wunderground v.1.15,2013-04-21 02:01:00,
2013-04-20 22:06:00,55.6,39.2,30.25,NNW,329,1.0,11.0,54,0.00,,,0.20,Wunderground v.1.15,2013-04-21 02:06:00,
2013-04-20 22:11:00,55.5,38.6,30.26,NNE,24,4.0,9.0,53,0.00,,,0.20,Wunderground v.1.15,2013-04-21 02:11:00,
2013-04-20 22:16:00,55.5,37.7,30.27,NE,39,4.0,14.0,51,0.00,,,0.20,Wunderground v.1.15,2013-04-21 02:16:00,
2013-04-20 22:21:00,55.4,37.6,30.26,NNW,337,2.0,14.0,51,0.00,,,0.20,Wunderground v.1.15,2013-04-21 02:21:00,
2013-04-20 22:26:00,55.4,38.5,30.26,North,360,4.0,14.0,53,0.00,,,0.20,Wunderground v.1.15,2013-04-21 02:26:00,
2013-04-20 22:31:00,55.2,38.4,30.27,North,9,4.0,11.0,53,0.00,,,0.20,Wunderground v.1.15,2013-04-21 02:31:00,
2013-04-20 22:36:00,55.1,39.2,30.27,NNW,330,4.0,11.0,55,0.00,,,0.20,Wunderground v.1.15,2013-04-21 02:36:00,
2013-04-20 22:41:00,55.0,38.2,30.27,NW,310,10.0,11.0,53,0.00,,,0.20,Wunderground v.1.15,2013-04-21 02:41:00,
2013-04-20 22:46:00,55.0,39.1,30.27,North,5,4.0,11.0,55,0.00,,,0.20,Wunderground v.1.15,2013-04-21 02:46:00,
2013-04-20 22:51:00,54.8,38.0,30.27,NNE,14,4.0,9.0,53,0.00,,,0.20,Wunderground v.1.15,2013-04-21 02:51:00,
2013-04-20 22:56:00,54.7,38.4,30.28,NE,40,9.0,10.0,54,0.00,,,0.20,Wunderground v.1.15,2013-04-21 02:56:00,
2013-04-20 23:01:00,54.6,37.3,30.28,NNW,334,6.0,11.0,52,0.00,,,0.20,Wunderground v.1.15,2013-04-21 03:01:00,
2013-04-20 23:06:00,54.5,37.2,30.28,NE,42,4.0,12.0,52,0.00,,,0.20,Wunderground v.1.15,2013-04-21 03:06:00,
2013-04-20 23:11:00,54.4,37.1,30.28,NNW,331,3.0,10.0,52,0.00,,,0.20,Wunderground v.1.15,2013-04-21 03:11:00,
2013-04-20 23:16:00,54.4,37.1,30.28,North,350,10.0,12.0,52,0.00,,,0.20,Wunderground v.1.15,2013-04-21 03:16:00,
2013-04-20 23:21:00,54.3,38.0,30.28,NNW,333,0.0,6.0,54,0.00,,,0.20,Wunderground v.1.15,2013-04-21 03:21:00,
2013-04-20 23:26:00,54.1,37.3,30.28,NNE,15,3.0,7.0,53,0.00,,,0.20,Wunderground v.1.15,2013-04-21 03:26:00,
2013-04-20 23:31:00,53.8,38.0,30.28,NE,46,2.0,5.0,55,0.00,,,0.20,Wunderground v.1.15,2013-04-21 03:31:00,
2013-04-20 23:36:00,53.5,37.3,30.28,NNW,345,10.0,11.0,54,0.00,,,0.20,Wunderground v.1.15,2013-04-21 03:36:00,
2013-04-20 23:41:00,53.2,37.0,30.28,NE,34,6.0,12.0,54,0.00,,,0.20,Wunderground v.1.15,2013-04-21 03:41:00,
2013-04-20 23:46:00,53.0,36.8,30.29,NNE,19,6.0,14.0,54,0.00,,,0.20,Wunderground v.1.15,2013-04-21 03:46:00,
2013-04-20 23:51:00,52.8,36.6,30.29,NE,44,6.0,7.0,54,0.00,,,0.20,Wunderground v.1.15,2013-04-21 03:51:00,
2013-04-20 23:56:00,52.7,37.4,30.29,NE,41,7.0,14.0,56,0.00,,,0.20,Wunderground v.1.15,2013-04-21 03:56:00,